[[{"header":{"parameterUnit":"m.s-1","parameterCategory":1,"la1":30.2991,"la2":30.254,"lo1":-89.0895,"lo2":-89.0444,"dy":0.0017,"dx":0.0017,"nx":28,"ny":28,"refTime":"2025-02-25T09:00:00:Z","depth":0,"parameterNumber":2,"parameterNumberName":"U-component_of_WINDS"},"data":[0,0,0,0,0,0,0,0,0,0,0,0,0,0,0,0,0,0,0,0,0,0,0,0,0,0,0,0,0,0,0,0,0,0,0,0,0,0,0,0,0,0,0,0,0,0,0,0,0,0,0,0,0,0,0,0,0,0,0.4528,0.4528,0,0.4523,0.4523,0.4523,0.452,0.452,0.452,0.452,0.4515,0.4515,0.4515,0,0,0,0,0,0,0,0,0,0,0,0,0,0.4535,0.4535,0.4528,0.4528,0.4528,0.4523,0.4523,0.4523,0.452,0.452,0.452,0.452,0.4515,0.4515,0.4515,0,0,0,0,0,0,0,0,0,0,0,0,0,0.4531,0.4535,0.4528,0.4526,0.4525,0.4523,0.4523,0.4523,0.452,0.452,0.452,0.452,0.4515,0.4515,0.4515,0.4514,0,0,0.4514,0.4514,0,0,0,0,0,0,0,0,0.4531,0.4531,0.4526,0.4526,0.4526,0.4522,0.4524,0.452,0.452,0.4522,0.452,0.452,0.4517,0.4517,0.4516,0.4514,0.4514,0.4514,0.4514,0.4514,0.4514,0,0,0,0,0,0,0,0.4532,0.4531,0.4526,0.4526,0.4526,0.4525,0.4525,0.4523,0.452,0.4522,0.4522,0.4521,0.4517,0.4516,0.4516,0.4514,0.4514,0.4514,0.4514,0.4514,0.4513,0.4513,0,0,0,0,0,0,0.4532,0.4531,0.4526,0.4526,0.4528,0.4525,0.4524,0.4523,0.452,0.4519,0.4521,0.4521,0.4517,0.4516,0.4516,0.4516,0.4514,0.4514,0.4514,0.4513,0.4513,0.4513,0,0,0,0,0,0,0.4532,0.4532,0.4526,0.4529,0.4528,0.4525,0.4524,0.4523,0.4522,0.4519,0.4519,0.4521,0.4517,0.4516,0.4515,0.4516,0.4514,0.4514,0.4513,0.4513,0.4513,0.4516,0,0,0,0,0,0,0.4533,0.4532,0.4531,0.4529,0.4528,0.4525,0.4524,0.4523,0.4522,0.4522,0.4519,0.4518,0.4517,0.4515,0.4515,0.4515,0.4513,0.4512,0.4513,0.4513,0.4515,0.4516,0.4516,0,0,0,0,0,0.4533,0.4532,0.4531,0.4531,0.4527,0.4525,0.4525,0.4523,0.4522,0.4522,0.452,0.4519,0.4516,0.4515,0.4515,0.4515,0.4512,0.4513,0.4513,0.4515,0.4516,0.4516,0,0,0,0,0,0,0.4534,0.4531,0.4531,0.4529,0.4527,0.4525,0.4524,0.4523,0.4522,0.4521,0.4519,0.4518,0.4518,0.4517,0.4516,0.4516,0.4514,0.4514,0.4516,0.4517,0.4517,0.4517,0.4513,0,0,0,0,0,0.4534,0.4533,0.4531,0.4529,0.4529,0.4527,0.4526,0.4525,0.4523,0.4522,0.4521,0.4519,0.4518,0.4517,0.4516,0.4516,0.4515,0.4516,0.4516,0.4517,0.4517,0.4517,0.4518,0.4513,0.4513,0.4513,0,0,0.4534,0.4533,0.4532,0.4529,0.4528,0.4527,0.4526,0.4525,0.4524,0.4522,0.4521,0.452,0.4518,0.4518,0.4518,0.4517,0.4518,0.4517,0.4517,0.4517,0.4518,0.4518,0.4518,0.4513,0.4513,0.4513,0,0,0.4534,0.4532,0.4531,0.4531,0.4529,0.4528,0.4528,0.4526,0.4525,0.4525,0.4523,0.4523,0.4521,0.452,0.452,0.4521,0.452,0.4521,0.4523,0.4524,0.4524,0.4524,0.4525,0.4526,0.4521,0.4521,0.4521,0,0.4534,0.4532,0.4531,0.453,0.453,0.4529,0.4528,0.4527,0.4526,0.4525,0.4525,0.4523,0.4522,0.4522,0.4523,0.4522,0.4522,0.4521,0.4524,0.4524,0.4525,0.4526,0.4526,0.4521,0.4521,0.4521,0.4521,0,0.4533,0.4532,0.4532,0.4531,0.453,0.453,0.4529,0.4529,0.4528,0.4527,0.4527,0.4526,0.4525,0.4525,0.4524,0.4526,0.4525,0.4524,0.4523,0.4525,0.4526,0.4527,0.4522,0.4522,0.4522,0.4521,0,0,0.4531,0.4531,0.4531,0.4531,0.453,0.453,0.453,0.453,0.453,0.4529,0.453,0.4529,0.4529,0.4528,0.4527,0.4528,0.4531,0.4527,0.4527,0.4528,0.4533,0.4534,0.4534,0.453,0.453,0.453,0.4533,0,0.4531,0.4531,0.453,0.4531,0.453,0.453,0.4531,0.4531,0.453,0.4531,0.4531,0.453,0.453,0.453,0.453,0.453,0.4532,0.453,0.4531,0.4531,0.4531,0.4535,0.4535,0.4538,0.4534,0.4534,0.4534,0,0.453,0.453,0.453,0.4531,0.4531,0.4531,0.4532,0.4532,0.4532,0.4532,0.4533,0.4532,0.4533,0.4532,0.4534,0.4533,0.4533,0.4534,0.4534,0.4533,0.4532,0.4534,0.4538,0.4539,0.4534,0.4534,0.4534,0,0.4529,0.453,0.453,0.453,0.4531,0.4531,0.4532,0.4532,0.4533,0.4533,0.4534,0.4534,0.4535,0.4536,0.4536,0.4535,0.4538,0.4537,0.4538,0.4538,0.4538,0.4538,0.4542,0.4539,0.4539,0.4539,0.4539,0,0.4529,0.4529,0.453,0.453,0.4531,0.4531,0.4532,0.4533,0.4534,0.4534,0.4535,0.4535,0.4536,0.4537,0.4537,0.4539,0.4539,0.454,0.454,0.4539,0.4539,0.4539,0.4539,0.4539,0.4539,0.4539,0.4539,0,0.4527,0.4528,0.4529,0.453,0.4531,0.4531,0.4533,0.4533,0.4534,0.4535,0.4536,0.4537,0.4538,0.4539,0.454,0.4541,0.4543,0.4543,0.4543,0.4543,0.4545,0.4544,0.4549,0.455,0.4546,0.4546,0.4546,0,0.4527,0.4527,0.4529,0.453,0.453,0.4531,0.4532,0.4533,0.4534,0.4536,0.4537,0.4538,0.454,0.4543,0.4544,0.4545,0.4545,0.4547,0.4545,0.4546,0.4546,0.4546,0.4546,0.4547,0.4547,0.4547,0.4547,0,0.4526,0.4527,0.4528,0.4529,0.4531,0.4532,0.4533,0.4534,0.4535,0.4537,0.4539,0.454,0.4542,0.4544,0.4547,0.4547,0.4548,0.4548,0.4548,0.4548,0.4548,0.4548,0.4544,0.4547,0.4547,0.4547,0.4547,0.4547,0.4525,0.4526,0.4528,0.4529,0.4531,0.4532,0.4534,0.4535,0.4537,0.4539,0.454,0.4542,0.4544,0.4547,0.4549,0.4551,0.455,0.4551,0.4551,0.4551,0.4552,0.4548,0.4551,0.4551,0.4551,0.4551,0.4551,0,0.4524,0.4526,0.4527,0.453,0.4532,0.4532,0.4534,0.4536,0.4538,0.454,0.4542,0.4545,0.4547,0.4549,0.4552,0.4554,0.4554,0.4554,0.4554,0.4554,0.4551,0.4551,0.4554,0.4554,0.4554,0.4554,0.4554,0.4554,0.4524,0.4526,0.4527,0.453,0.4532,0.4534,0.4535,0.4537,0.4539,0.4543,0.4545,0.4547,0.4549,0.4552,0.4555,0.4556,0.4557,0.4557,0.4558,0.4555,0.4554,0.4554,0.4554,0.4557,0.4557,0.4561,0.4561,0.4561]},{"header":{"parameterUnit":"m.s-1","parameterCategory":1,"la1":30.2991,"la2":30.254,"lo1":-89.0895,"lo2":-89.0444,"dy":0.0017,"dx":0.0017,"nx":28,"ny":28,"refTime":"2025-02-25T09:00:00:Z","depth":0,"parameterNumber":3,"parameterNumberName":"V-component_of_WINDS"},"data":[0,0,0,0,0,0,0,0,0,0,0,0,0,0,0,0,0,0,0,0,0,0,0,0,0,0,0,0,0,0,0,0,0,0,0,0,0,0,0,0,0,0,0,0,0,0,0,0,0,0,0,0,0,0,0,0,0,0,-2.1199,-2.1199,0,-2.1245,-2.1246,-2.1246,-2.125,-2.125,-2.1249,-2.1249,-2.1293,-2.1295,-2.1296,0,0,0,0,0,0,0,0,0,0,0,0,0,-2.1109,-2.1111,-2.1198,-2.1199,-2.12,-2.1245,-2.1246,-2.1247,-2.125,-2.125,-2.1249,-2.1248,-2.1292,-2.1294,-2.1296,0,0,0,0,0,0,0,0,0,0,0,0,0,-2.1151,-2.1112,-2.1198,-2.1207,-2.1208,-2.1245,-2.1246,-2.1247,-2.125,-2.125,-2.1249,-2.1248,-2.1292,-2.1294,-2.1297,-2.1327,0,0,-2.1304,-2.1305,0,0,0,0,0,0,0,0,-2.1149,-2.1154,-2.1205,-2.1207,-2.1208,-2.1241,-2.1231,-2.1273,-2.125,-2.1234,-2.1249,-2.1248,-2.1276,-2.128,-2.129,-2.1329,-2.1331,-2.1304,-2.1306,-2.1307,-2.1308,0,0,0,0,0,0,0,-2.1146,-2.1152,-2.1217,-2.1206,-2.1208,-2.1208,-2.1213,-2.1239,-2.1259,-2.1236,-2.1236,-2.1242,-2.1277,-2.1288,-2.1291,-2.1332,-2.1304,-2.1307,-2.1308,-2.1309,-2.1398,-2.1399,0,0,0,0,0,0,-2.1142,-2.115,-2.1215,-2.1218,-2.1176,-2.121,-2.1216,-2.1231,-2.1258,-2.1262,-2.1242,-2.1242,-2.1284,-2.1288,-2.1293,-2.1331,-2.1307,-2.1309,-2.1311,-2.1397,-2.1398,-2.1399,0,0,0,0,0,0,-2.114,-2.1148,-2.1214,-2.1184,-2.1193,-2.1212,-2.123,-2.1233,-2.1244,-2.1264,-2.1267,-2.125,-2.1284,-2.1289,-2.1319,-2.1332,-2.131,-2.1313,-2.1396,-2.1398,-2.1399,-2.1406,0,0,0,0,0,0,-2.1137,-2.1147,-2.1159,-2.1185,-2.1194,-2.124,-2.1231,-2.1234,-2.1248,-2.1248,-2.1272,-2.1275,-2.1283,-2.1315,-2.1321,-2.1335,-2.1315,-2.1395,-2.1397,-2.1398,-2.1404,-2.1407,-2.141,0,0,0,0,0,-2.1134,-2.1158,-2.116,-2.1168,-2.121,-2.124,-2.1246,-2.1256,-2.1249,-2.1262,-2.1274,-2.1274,-2.133,-2.1318,-2.1325,-2.134,-2.1394,-2.1396,-2.1398,-2.1403,-2.1407,-2.141,0,0,0,0,0,0,-2.1132,-2.1162,-2.1164,-2.1197,-2.1217,-2.1241,-2.1257,-2.1259,-2.128,-2.1278,-2.1289,-2.1294,-2.1324,-2.1335,-2.1321,-2.1371,-2.1361,-2.1365,-2.1363,-2.1366,-2.1368,-2.1365,-2.1317,0,0,0,0,0,-2.1136,-2.1159,-2.1183,-2.121,-2.122,-2.1237,-2.125,-2.1257,-2.1276,-2.1284,-2.1299,-2.1318,-2.1339,-2.1353,-2.1374,-2.1406,-2.1411,-2.142,-2.1422,-2.1424,-2.1427,-2.1445,-2.1449,-2.1406,-2.1406,-2.1406,0,0,-2.1144,-2.1163,-2.1176,-2.1211,-2.1226,-2.1249,-2.1243,-2.1268,-2.1285,-2.1287,-2.1317,-2.1329,-2.135,-2.1381,-2.1395,-2.1391,-2.144,-2.1427,-2.1428,-2.143,-2.1448,-2.1452,-2.1455,-2.1407,-2.1407,-2.1407,0,0,-2.1169,-2.1186,-2.1211,-2.1227,-2.1251,-2.1263,-2.1269,-2.1293,-2.1301,-2.1331,-2.1334,-2.1354,-2.1391,-2.1406,-2.1419,-2.1451,-2.1452,-2.1458,-2.1471,-2.1488,-2.1492,-2.1495,-2.1507,-2.1511,-2.146,-2.146,-2.146,0,-2.1175,-2.1211,-2.1223,-2.1248,-2.1262,-2.1268,-2.1293,-2.1307,-2.1337,-2.1347,-2.1342,-2.1389,-2.1404,-2.1439,-2.1447,-2.1457,-2.1463,-2.1455,-2.149,-2.1494,-2.1497,-2.1508,-2.1512,-2.1461,-2.1461,-2.1461,-2.1461,0,-2.1217,-2.1242,-2.1258,-2.1289,-2.1305,-2.133,-2.1345,-2.136,-2.1366,-2.1377,-2.1407,-2.1425,-2.145,-2.1459,-2.1464,-2.1495,-2.1492,-2.1488,-2.1479,-2.1501,-2.1512,-2.1516,-2.1462,-2.1462,-2.1461,-2.1461,0,0,-2.1242,-2.1279,-2.1285,-2.1299,-2.1327,-2.1346,-2.1371,-2.1397,-2.141,-2.143,-2.1451,-2.1482,-2.148,-2.1494,-2.1501,-2.1516,-2.1541,-2.1511,-2.1512,-2.1516,-2.1577,-2.1579,-2.1584,-2.1542,-2.1543,-2.1544,-2.1575,0,-2.1271,-2.1316,-2.1328,-2.1366,-2.1389,-2.1395,-2.1417,-2.1436,-2.1447,-2.1468,-2.148,-2.1502,-2.1497,-2.1506,-2.1522,-2.1535,-2.1554,-2.1533,-2.1561,-2.1562,-2.1555,-2.159,-2.1592,-2.1621,-2.158,-2.158,-2.1581,0,-2.131,-2.1333,-2.1374,-2.14,-2.141,-2.1429,-2.1454,-2.1474,-2.1495,-2.1502,-2.1519,-2.1524,-2.155,-2.1539,-2.1574,-2.156,-2.1572,-2.158,-2.1582,-2.1585,-2.1572,-2.1593,-2.1631,-2.1635,-2.1588,-2.1587,-2.1587,0,-2.1324,-2.1365,-2.1395,-2.1407,-2.1438,-2.1451,-2.1464,-2.1485,-2.15,-2.1522,-2.1532,-2.1555,-2.1568,-2.1586,-2.1598,-2.1589,-2.1632,-2.1622,-2.1638,-2.1638,-2.1646,-2.1646,-2.1686,-2.1654,-2.1654,-2.1654,-2.1654,0,-2.1355,-2.138,-2.1402,-2.1421,-2.1449,-2.1462,-2.1489,-2.1502,-2.1521,-2.1542,-2.1548,-2.1567,-2.1581,-2.1601,-2.161,-2.1638,-2.1643,-2.165,-2.1652,-2.1649,-2.1649,-2.1657,-2.1655,-2.1655,-2.1655,-2.1655,-2.1655,0,-2.1376,-2.1392,-2.1425,-2.1452,-2.1459,-2.1479,-2.1501,-2.1519,-2.1531,-2.1557,-2.1564,-2.1583,-2.1607,-2.1621,-2.1651,-2.1657,-2.1688,-2.1689,-2.1682,-2.1682,-2.1698,-2.1696,-2.1745,-2.1752,-2.1716,-2.1716,-2.1716,0,-2.1394,-2.1414,-2.1443,-2.1458,-2.1472,-2.1496,-2.1512,-2.1526,-2.1542,-2.1569,-2.1583,-2.1609,-2.163,-2.1669,-2.1685,-2.1708,-2.171,-2.1725,-2.1713,-2.171,-2.171,-2.1709,-2.1711,-2.1727,-2.1727,-2.1728,-2.1728,0,-2.1426,-2.1433,-2.1456,-2.1483,-2.1502,-2.1523,-2.1544,-2.1555,-2.1572,-2.159,-2.1616,-2.1633,-2.1665,-2.169,-2.1715,-2.1728,-2.1731,-2.1732,-2.1737,-2.1734,-2.1729,-2.1732,-2.1687,-2.173,-2.173,-2.173,-2.173,-2.173,-2.1446,-2.1464,-2.1488,-2.1514,-2.1531,-2.1551,-2.1569,-2.1584,-2.1607,-2.1635,-2.1642,-2.1669,-2.1691,-2.1725,-2.1738,-2.176,-2.1756,-2.1763,-2.1765,-2.1767,-2.1768,-2.1726,-2.1764,-2.1764,-2.1764,-2.1764,-2.1764,0,-2.1478,-2.1494,-2.1518,-2.1548,-2.1568,-2.157,-2.1594,-2.161,-2.1635,-2.1655,-2.1677,-2.1707,-2.1732,-2.175,-2.1775,-2.1788,-2.179,-2.1794,-2.1793,-2.1796,-2.1769,-2.1762,-2.1792,-2.1792,-2.1792,-2.1792,-2.1792,-2.1792,-2.1497,-2.1528,-2.1538,-2.1577,-2.1593,-2.1621,-2.1635,-2.1652,-2.1669,-2.1703,-2.1724,-2.1736,-2.1756,-2.1782,-2.1805,-2.181,-2.1818,-2.1823,-2.1827,-2.1801,-2.1798,-2.1795,-2.1789,-2.1824,-2.1824,-2.1853,-2.1853,-2.1853]}]]